Regional Weather Roundup
Issued by NWS Tiyan, Guam

Home | Current Version | Previous Version | Text Only | Print | Product List | Glossary On
Versions: 1 2 3 4 5 6 7 8 9 10 11 12 13 14 15 16 17 18 19 20 21 22 23
000
ASGM40 PGUM 260512
RWRGUM
WEATHER ROUNDUP FOR THE MARIANAS
NATIONAL WEATHER SERVICE TIYAN GU
300 PM CHST SUN FEB 26 2017

GUZ001>004-260600-
MARIANA ISLANDS-

CITY           SKY/WX    TMP DP  RH WIND       PRES   REMARKS
GUAM AIRPORT   PTSUNNY   88  73  62 E14G26    29.85F HX  96
ANDERSEN AFB   MOSUNNY   82  73  74 NE20G26   29.87F
ROTA AIRPORT   MOSUNNY   82  72  69 NE16      29.87F
TINIAN AP      MOSUNNY   84  73  70 NE20      29.85F HX  91
SAIPAN AP      PTSUNNY   84  73  70 E17       29.86F HX  91

$$





USA.gov is the U.S. government's official web portal to all federal, state and local government web resources and services.